Wind_Speed
5 5 5 6 6 6 7 8 10 11 11 11 11 10 10 10 10 9 9 9 8 7 7 6 6 7 7 8 9 9 10 10 10 11 11 12 13 13 13 13 14 14 14
4 4 4 4 5 5 6 7 8 9 9 10 9 9 9 9 9 9 9 9 8 8 8 8 8 8 8 9 9 10 11 11 11 12 12 13 13 14 14 15 15 15 15
2 2 3 3 3 3 4 5 6 6 7 7 7 7 7 7 7 7 8 7 7 8 8 8 8 8 9 9 10 11 11 12 12 13 13 14 14 15 15 15 16 16 16
2 1 2 1 1 2 2 3 4 4 5 5 5 5 5 5 6 6 7 7 7 7 7 7 8 8 9 10 11 11 12 12 13 14 14 14 15 15 15 15 16 16 16
3 3 3 3 2 1 1 2 3 3 3 4 4 5 5 5 6 6 7 7 7 7 7 7 8 8 9 10 11 12 12 13 13 14 15 15 15 15 15 15 15 15 15
5 5 4 4 3 2 1 1 2 2 3 4 4 5 5 6 6 7 7 7 7 7 7 8 8 9 10 10 11 12 12 13 13 14 14 15 15 15 15 15 15 15 14
7 7 6 5 4 3 2 1 1 2 2 3 4 5 6 6 7 8 8 8 8 8 9 9 10 10 11 11 12 12 13 13 13 14 15 15 15 15 15 15 15 15 15
8 8 7 6 6 4 3 3 2 2 2 3 4 5 6 7 8 8 9 9 9 10 10 10 11 11 12 12 13 13 13 14 14 14 15 15 15 15 15 15 15 15 15
8 9 9 8 7 6 5 4 4 3 4 4 5 5 6 7 8 9 10 10 10 11 11 11 11 12 12 13 13 13 14 14 14 15 15 15 15 15 15 15 15 15 15
9 9 9 8 8 7 6 6 5 5 5 5 6 7 7 8 9 10 11 11 11 11 12 12 12 13 13 14 14 14 14 14 15 15 16 16 16 16 15 15 15 16 16
8 8 8 7 7 7 7 7 6 6 6 7 7 8 9 9 10 11 12 12 12 12 12 13 13 13 13 14 14 15 15 15 16 16 17 17 17 17 17 17 17 17 18
6 6 6 5 6 6 6 7 7 8 8 8 9 10 11 11 12 13 13 14 14 14 14 14 14 14 15 15 15 16 16 17 17 18 18 19 19 19 19 19 19 20 20
3 3 4 4 5 6 7 8 9 9 10 10 11 12 13 14 14 15 16 16 16 16 16 16 16 17 17 17 17 17 18 19 20 20 21 21 21 22 22 23 23 23 24
0 1 3 5 6 8 9 9 11 11 11 12 13 14 16 16 17 18 18 19 19 19 19 19 19 19 19 20 20 20 20 21 21 22 23 23 24 25 25 26 27 27 28
3 4 5 7 8 10 11 11 13 13 14 15 16 17 18 19 20 21 22 22 22 22 22 22 22 22 22 22 22 23 24 24 24 25 25 26 27 28 29 30 30 31 32
7 7 8 9 10 11 12 13 15 15 17 18 19 21 22 23 24 25 27 27 27 26 25 25 25 25 25 25 25 25 26 26 27 27 28 28 29 30 31 33 34 35 36
10 10 11 11 12 13 14 15 17 18 19 21 23 25 26 27 28 29 31 31 32 31 30 29 29 29 29 29 28 28 28 28 28 29 30 31 32 32 34 35 36 38 39
14 13 14 14 14 15 17 18 19 20 22 24 26 27 29 31 33 34 35 36 36 35 35 33 32 32 32 31 30 29 29 29 29 30 31 33 34 36 37 38 39 40 42
17 17 17 17 17 19 20 21 22 24 26 28 30 32 32 33 35 36 37 38 38 38 38 37 36 34 33 33 32 31 30 30 31 31 33 34 36 38 40 40 42 43 44
21 21 21 21 21 22 23 24 25 28 30 33 35 37 36 36 37 38 39 39 40 40 39 38 37 35 34 34 33 32 31 31 31 32 34 35 37 39 41 43 44 45 46
25 25 25 26 25 26 26 27 29 31 34 36 38 38 38 37 39 40 39 38 38 38 37 37 37 35 32 32 32 31 30 31 33 34 35 38 39 41 42 43 45 47 48
28 28 28 29 29 29 30 30 32 34 36 39 40 40 40 40 40 37 34 33 33 33 34 34 33 32 31 30 31 32 32 33 34 36 38 40 42 44 45 46 48 50 51
30 30 31 31 31 31 32 33 34 37 39 41 41 42 43 41 37 35 31 29 27 27 28 28 29 30 30 30 32 33 35 38 39 40 41 44 46 48 50 51 52 54 55
31 31 32 32 33 33 34 35 37 39 40 42 43 42 42 42 39 34 32 30 28 27 28 28 29 30 31 33 35 37 40 42 45 46 47 48 50 52 54 56 57 59 60
31 32 33 34 35 36 37 38 39 41 42 43 42 42 42 41 39 34 32 32 32 31 32 32 32 33 35 38 39 41 44 47 49 51 53 55 56 57 58 60 61 63 64
32 33 34 36 37 38 39 40 41 42 42 42 42 42 42 42 39 36 37 36 35 35 35 36 38 39 41 43 45 47 49 51 54 55 57 58 60 61 62 63 65 66 68
Wind_Direction
256 246 241 238 236 238 248 258 260 261 260 258 255 254 254 253 251 251 252 254 255 261 267 273 280 284 288 289 287 286 284 284 281 276 274 273 272 270 269 269 270 271 271
253 243 240 237 238 240 249 259 261 262 262 261 257 255 254 252 250 250 252 254 254 259 265 270 273 275 278 280 281 280 280 279 278 275 274 273 272 271 270 269 269 270 270
230 220 222 224 230 239 248 254 256 257 258 255 252 250 248 246 244 243 246 247 250 254 259 264 266 268 271 274 276 276 276 275 274 274 273 273 272 272 271 271 270 270 270
141 141 150 154 192 224 236 239 240 244 244 242 241 240 242 243 243 243 244 245 246 249 254 259 262 265 268 270 271 272 273 272 272 272 273 273 273 273 272 271 271 270 270
105 102 99 93 98 126 187 221 232 237 233 231 231 231 235 239 242 245 246 247 249 251 254 258 262 265 266 267 268 269 270 270 271 271 272 273 272 272 272 272 271 270 269
98 89 83 82 85 93 108 197 237 234 231 227 226 229 233 237 242 247 250 252 255 258 260 262 264 266 267 268 269 269 269 270 270 271 272 272 272 272 272 271 270 269 269
91 83 79 79 76 69 61 31 319 272 251 241 239 236 237 241 247 252 255 258 261 264 266 266 267 268 270 271 271 271 271 272 273 272 272 272 272 272 271 270 269 268 270
89 84 79 73 67 61 51 36 14 338 302 279 265 257 255 256 257 260 263 266 269 271 271 271 271 272 272 273 274 274 274 274 273 273 272 272 271 272 272 272 271 270 271
90 87 83 74 67 60 51 36 18 354 327 307 295 288 284 279 275 274 274 275 276 277 277 276 276 276 276 276 276 276 276 275 275 275 275 274 274 273 273 273 271 270 272
96 91 84 73 63 55 46 32 18 4 347 329 315 307 300 294 290 288 286 286 285 284 283 282 281 279 279 278 278 277 277 277 277 277 277 277 277 276 275 274 273 273 274
99 91 82 71 59 47 36 22 10 358 348 338 327 318 310 305 301 298 296 294 293 291 288 286 284 281 280 280 279 279 278 278 278 278 278 278 277 276 275 274 273 273 274
98 85 76 61 46 32 20 8 359 351 344 337 330 323 315 309 304 301 299 296 294 292 290 288 284 282 281 280 280 280 280 280 280 279 279 278 277 276 275 274 274 273 274
97 73 52 30 17 8 360 353 347 342 338 334 329 323 317 310 304 298 295 293 292 290 287 285 283 282 280 280 280 281 281 280 281 281 280 279 278 277 276 275 275 274 274
217 360 358 351 348 344 343 341 338 336 334 330 326 320 313 307 301 296 292 289 287 286 284 281 279 279 279 279 279 280 280 280 280 281 281 279 278 278 277 277 277 277 277
267 295 315 324 325 328 331 332 332 329 325 320 317 313 308 303 297 291 287 285 283 281 280 279 278 277 276 277 277 279 279 279 279 280 279 278 278 277 277 277 277 277 278
262 277 291 303 308 316 321 323 323 321 317 313 309 306 301 297 293 289 285 282 280 278 276 276 276 275 274 275 275 277 278 279 279 280 280 279 278 278 278 278 278 278 278
263 272 280 289 295 301 306 311 313 312 312 309 304 301 297 293 289 285 283 280 277 276 274 273 272 272 273 273 274 276 277 277 278 279 280 280 280 279 279 280 279 279 278
264 269 274 281 287 292 297 302 305 305 305 302 299 297 295 293 289 286 282 279 275 273 272 271 270 271 271 271 272 275 277 277 277 279 280 281 282 281 280 281 280 279 279
263 268 272 276 280 285 290 295 298 299 300 297 294 294 293 293 290 287 281 278 276 273 270 269 268 268 269 271 272 273 276 277 278 279 281 282 282 282 282 280 280 280 279
266 269 272 274 276 279 284 288 292 294 294 295 295 297 296 294 296 294 287 280 277 275 272 270 268 268 269 271 271 272 276 277 279 282 282 282 282 282 282 282 281 280 279
268 269 272 275 275 277 281 285 288 290 292 294 297 295 298 298 300 298 290 286 284 280 275 269 271 268 271 272 273 275 280 282 283 284 284 284 284 283 282 282 282 281 280
267 268 270 273 275 277 280 283 286 289 291 293 298 299 301 303 302 302 297 294 292 284 279 276 272 269 274 277 279 282 286 287 287 287 288 288 288 287 285 284 283 282 282
266 266 268 270 273 275 279 281 284 287 290 294 298 301 302 306 307 306 306 306 302 294 288 282 280 279 281 284 288 289 291 292 292 290 289 290 290 289 288 287 285 284 283
264 264 266 268 271 274 277 280 284 287 290 294 298 301 305 307 310 312 315 313 310 306 300 297 294 290 289 291 292 292 291 292 294 294 293 292 291 290 289 288 286 285 284
262 262 263 266 269 273 276 280 283 286 289 292 296 298 302 306 309 311 313 312 311 309 306 303 301 297 294 296 296 294 293 293 293 293 294 294 292 290 289 288 287 286 285
260 261 262 264 268 271 275 278 281 283 286 289 292 296 300 304 306 307 309 310 308 307 305 303 301 298 297 297 296 295 293 293 292 292 292 291 290 290 289 288 287 286 285
Height
5901 5901 5901 5902 5902 5902 5902 5903 5903 5903 5903 5904 5904 5904 5904 5904 5905 5905 5905 5905 5906 5906 5906 5907 5907 5907 5907 5907 5907 5907 5907 5907 5907 5908 5908 5908 5908 5908 5908 5908 5908 5908 5908
5899 5899 5899 5900 5900 5901 5901 5901 5901 5901 5901 5902 5902 5902 5902 5902 5902 5902 5903 5903 5903 5904 5904 5904 5904 5905 5904 5904 5904 5904 5904 5904 5905 5905 5905 5905 5905 5905 5905 5905 5905 5905 5905
5898 5898 5898 5898 5899 5899 5899 5900 5900 5900 5900 5900 5900 5900 5900 5900 5900 5900 5900 5900 5901 5901 5901 5902 5902 5902 5902 5902 5902 5901 5901 5902 5902 5902 5902 5902 5902 5902 5903 5903 5902 5902 5902
5897 5897 5897 5897 5897 5898 5898 5898 5899 5899 5899 5898 5898 5898 5898 5898 5898 5898 5898 5898 5899 5899 5899 5899 5899 5899 5899 5899 5899 5899 5899 5899 5899 5899 5899 5899 5899 5899 5900 5900 5900 5900 5900
5896 5896 5896 5896 5896 5897 5897 5897 5898 5898 5898 5897 5897 5897 5897 5896 5896 5896 5897 5897 5897 5897 5897 5897 5897 5897 5897 5897 5897 5896 5896 5896 5896 5896 5896 5896 5896 5897 5897 5897 5897 5897 5897
5896 5895 5895 5896 5896 5896 5896 5896 5896 5896 5896 5896 5896 5896 5896 5895 5895 5895 5895 5895 5895 5896 5896 5896 5895 5895 5895 5895 5894 5894 5894 5894 5894 5894 5893 5893 5894 5894 5894 5894 5894 5894 5894
5895 5895 5895 5895 5896 5896 5895 5895 5895 5895 5895 5895 5895 5895 5895 5894 5894 5894 5894 5894 5894 5894 5894 5894 5894 5893 5893 5893 5892 5892 5892 5891 5891 5891 5891 5891 5891 5891 5891 5891 5891 5891 5891
5895 5895 5895 5895 5895 5895 5895 5895 5895 5895 5894 5894 5894 5894 5893 5893 5893 5893 5892 5892 5893 5893 5892 5892 5892 5891 5891 5890 5890 5889 5889 5889 5889 5888 5888 5888 5888 5888 5888 5888 5888 5888 5888
5895 5895 5895 5895 5895 5895 5895 5895 5894 5894 5894 5893 5893 5893 5892 5892 5891 5891 5891 5890 5890 5890 5890 5890 5889 5889 5888 5888 5887 5887 5886 5886 5886 5885 5885 5885 5885 5885 5885 5885 5885 5885 5885
5896 5896 5896 5895 5895 5895 5894 5894 5894 5893 5893 5892 5892 5891 5891 5890 5890 5889 5889 5888 5888 5888 5888 5887 5887 5886 5885 5885 5885 5884 5883 5883 5883 5882 5882 5882 5881 5881 5881 5881 5881 5881 5881
5896 5895 5895 5895 5895 5894 5894 5893 5893 5892 5892 5891 5890 5890 5889 5888 5888 5887 5886 5886 5886 5885 5885 5884 5884 5883 5882 5882 5881 5881 5880 5880 5879 5879 5878 5878 5877 5877 5877 5877 5877 5877 5877
5895 5895 5895 5895 5894 5894 5893 5892 5892 5891 5890 5890 5889 5888 5887 5886 5886 5885 5884 5883 5883 5882 5882 5881 5880 5879 5879 5878 5878 5877 5876 5876 5875 5875 5874 5874 5873 5873 5873 5873 5873 5873 5873
5895 5894 5894 5894 5893 5893 5892 5891 5890 5890 5889 5888 5887 5886 5885 5884 5883 5882 5881 5880 5879 5879 5878 5877 5876 5876 5875 5874 5874 5873 5872 5872 5871 5870 5870 5869 5869 5869 5868 5868 5868 5867 5867
5894 5894 5893 5893 5892 5891 5890 5890 5889 5888 5887 5886 5885 5884 5883 5882 5881 5879 5878 5877 5876 5875 5874 5873 5873 5872 5871 5870 5869 5869 5868 5867 5866 5865 5865 5864 5864 5863 5863 5862 5862 5862 5861
5893 5892 5892 5891 5890 5889 5889 5888 5887 5886 5885 5884 5883 5881 5880 5879 5878 5876 5874 5873 5872 5871 5870 5869 5868 5867 5866 5865 5864 5864 5863 5862 5861 5860 5859 5859 5858 5858 5857 5856 5856 5855 5855
5891 5891 5890 5889 5888 5887 5886 5886 5885 5884 5882 5881 5880 5878 5877 5875 5873 5872 5870 5868 5867 5866 5865 5864 5863 5862 5861 5860 5859 5858 5857 5856 5855 5854 5853 5852 5851 5851 5850 5849 5848 5847 5847
5889 5888 5888 5887 5886 5885 5884 5883 5882 5881 5879 5878 5876 5874 5872 5870 5868 5866 5864 5862 5861 5859 5858 5857 5856 5855 5855 5854 5853 5852 5850 5849 5848 5847 5846 5845 5844 5843 5842 5841 5840 5839 5838
5886 5886 5885 5884 5883 5882 5881 5880 5879 5877 5875 5873 5871 5869 5867 5864 5862 5860 5856 5854 5852 5851 5850 5850 5849 5848 5847 5846 5845 5845 5843 5842 5841 5840 5839 5837 5835 5834 5833 5833 5831 5830 5828
5883 5883 5882 5881 5880 5879 5877 5876 5874 5873 5871 5868 5866 5864 5861 5858 5855 5852 5848 5845 5843 5842 5841 5840 5840 5839 5839 5838 5837 5837 5835 5834 5833 5832 5831 5829 5827 5825 5824 5823 5821 5819 5818
5879 5879 5878 5877 5876 5874 5873 5872 5870 5868 5866 5863 5860 5858 5855 5851 5848 5844 5840 5837 5836 5834 5833 5832 5831 5831 5830 5829 5829 5828 5827 5826 5825 5824 5823 5821 5819 5816 5814 5812 5811 5809 5807
5875 5875 5874 5873 5872 5870 5868 5867 5865 5863 5860 5858 5855 5852 5848 5844 5840 5836 5833 5830 5828 5827 5826 5824 5823 5823 5822 5822 5821 5820 5819 5818 5817 5815 5813 5811 5809 5807 5804 5802 5799 5797 5795
5870 5870 5869 5868 5867 5865 5864 5862 5860 5857 5855 5852 5849 5846 5843 5839 5834 5829 5826 5824 5822 5820 5818 5817 5816 5816 5815 5814 5813 5811 5811 5811 5809 5806 5804 5801 5799 5796 5793 5791 5788 5785 5782
5864 5864 5863 5862 5861 5860 5858 5856 5854 5852 5849 5845 5843 5840 5837 5833 5828 5824 5821 5818 5815 5813 5811 5810 5809 5808 5807 5807 5805 5803 5802 5800 5798 5797 5794 5790 5787 5784 5781 5778 5774 5771 5767
5857 5857 5857 5856 5856 5854 5853 5851 5848 5846 5843 5840 5836 5833 5830 5826 5822 5819 5816 5813 5810 5808 5807 5805 5803 5801 5800 5798 5797 5794 5792 5790 5786 5783 5781 5778 5774 5770 5767 5763 5759 5755 5751
5849 5850 5850 5850 5849 5848 5846 5844 5842 5839 5836 5833 5830 5827 5824 5821 5817 5815 5812 5809 5806 5804 5802 5799 5797 5794 5792 5790 5787 5785 5782 5778 5774 5770 5766 5763 5759 5755 5751 5746 5742 5737 5733
5842 5842 5842 5842 5841 5840 5839 5837 5834 5832 5829 5826 5823 5820 5817 5814 5811 5808 5805 5803 5800 5797 5795 5792 5789 5786 5783 5779 5776 5773 5769 5765 5761 5756 5752 5748 5743 5739 5733 5729 5723 5718 5714